Regional Weather Roundup
Issued by NWS Grand Forks, ND

Home | Current Version | Previous Version | Graphics & Text | Print | Product List | Glossary On
Versions: 1 2 3 4 5 6 7 8 9 10 11 12 13 14 15 16 17 18 19 20 21 22 23 24 25 26 27 28 29 30 31 32 33 34 35 36 37 38 39 40 41 42 43 44 45 46 47 48 49 50
000
ASUS43 KFGF 260131
RWRFGF
PRAIRIE TO PINES  WEATHER ROUNDUP
NATIONAL WEATHER SERVICE EASTERN NORTH DAKOTA/GRAND FORKS ND
800 PM CDT MON MAY 25 2015

 **SATELLITE DATA USED TO AUGMENT SKY COVER AT AUTOMATED STATIONS**
 *****  WEATHER ACROSS EASTERN NORTH DAKOTA  *****

CITY           SKY/WX    TMP DP  RH WIND       PRES   REMARKS
GRAND FORKS    PTCLDY    69  51  52 S13       29.78S
GRAND FRKS AFB MOSUNNY   69  54  59 S12G21    29.78S
GRAND FRKS NWS   N/A     64 N/A N/A S6          N/A
DEVILS LAKE    MOSUNNY   72  43  35 S6        29.77S
FARGO          CLOUDY    63  55  75 E6        29.82R
WAHPETON ARPT  MOCLDY    59  50  72 NE8       29.81F
$$

 ***** WEATHER ACROSS CENTRAL AND WESTERN NORTH DAKOTA  *****

CITY           SKY/WX    TMP DP  RH WIND       PRES   REMARKS
BISMARCK       CLOUDY    67  55  65 SW8       29.85S
MINOT          MOSUNNY   74  45  35 SW5       29.80F
JAMESTOWN      MOSUNNY   65  56  72 S14       29.81S
MINOT AFB      MOSUNNY   79  43  27 SW5       29.79S
GARRISON         N/A     72  50  45 W15       29.82F
WILLISTON      MOSUNNY   70  47  43 SW12      29.87R
DICKINSON      PTSUNNY   64  47  53 S6        29.88S
HETTINGER      CLOUDY    60  50  69 S8        29.92S
$$

 *****  OTHER AIRPORT OBSERVATIONS IN OUR AREA  *****

CITY           SKY/WX    TMP DP  RH WIND       PRES   REMARKS
WALHALLA         N/A     73  45  35 S5        29.74S
GRAFTON AIRPOR FAIR      70  54  56 S15G23    29.77R
VALLEY CITY AR FAIR      64  57  77 S8        29.84S
CANDO          MOCLDY    73  39  29 S8        29.78S
CAVALIER APRT  FAIR      75  43  31 S5        29.74S
GWINNER        NOT AVBL
ROLLA          MOCLDY    75  36  23 W7        29.79S
 ***** THE ABOVE OBSERVATIONS ARE NON NWS ARE NOT QUALITY
       CONTROLLED AND MAY MIS-REPORT RAIN FOR SNOW...
$$

  *****  WEATHER ACROSS NORTHERN MINNESOTA  *****

CITY           SKY/WX    TMP DP  RH WIND       PRES   REMARKS
FLAG ISLAND    CLOUDY    61  55  82 S9        29.75S
WARROAD        CLOUDY    66  55  68 S6        29.78R
ROSEAU         CLOUDY    70  54  56 SW8       29.77S
HALLOCK        MOSUNNY   73  45  35 S15       29.74S
THF RVR FALLS  CLOUDY    66  46  48 S10       29.81R
BAUDETTE       CLOUDY    64  54  69 S9        29.78R
WASKISH        CLOUDY    57  54  88 CALM      29.82R
CROOKSTON      MOCLDY    68  46  45 S10       29.81R
STEPHEN NDAWN    N/A     72  52  49 S14         N/A
GREENBUSH NDAW   N/A     70  54  56 S8          N/A
$$
  *****  WEATHER ACROSS CENTRAL AND WEST MINNESOTA  *****

CITY           SKY/WX    TMP DP  RH WIND       PRES   REMARKS
FOSSTON        CLOUDY    57  55  94 CALM      29.84R
BEMIDJI        LGT RAIN  55  54  94 N6        29.82R
PARK RAPIDS    LGT RAIN  58  53  84 NE10G16   29.79S
ELBOW LAKE     CLOUDY    58  51  77 NE12G24   29.78S
WADENA         CLOUDY    55  52  88 N14G25    29.77R
DETROIT LAKES  CLOUDY    59  52  77 E12       29.83S
MOORHEAD       CLOUDY    61  55  82 CALM      29.84R
FERGUS FALLS   CLOUDY    61  52  72 N8        29.81S
MORRIS MN      CLOUDY    61  54  77 N16G23    29.75F
STAPLES        CLOUDY    55  54  94 N10G18    29.75S
$$
  *****  WEATHER ELSEWHERE ACROSS MINNESOTA  *****

CITY           SKY/WX    TMP DP  RH WIND       PRES   REMARKS
DULUTH         LGT RAIN  50  48  93 NE7       29.74S FOG
INTRNTL FALLS  CLOUDY    57  53  86 CALM      29.80S
ELY            LGT RAIN  55  52  88 NE6       29.78R
CLOQUET        DRIZZLE   48  46  93 E5        29.75R
WHEATON        PTCLDY    59  52  77 N9        29.82S
BRAINERD       LGT RAIN  56  54  93 N15       29.73S FOG
HIBBING        LGT RAIN  56  51  84 NE9       29.77R
ALEXANDRIA     CLOUDY    57  53  86 N14       29.76R
SAINT CLOUD    CLEAR     65  57  75 SW10      29.70S
MINNEAPOLIS    MOCLDY    72  58  61 SW8       29.72S
$$

  *****  WEATHER ACROSS SOUTH DAKOTA  *****

CITY           SKY/WX    TMP DP  RH WIND       PRES   REMARKS
SIOUX FALLS    PTCLDY    67  59  75 N5        29.77R
BROOKINGS      PTCLDY    61  54  77 N7        29.79R
WATERTOWN      PTCLDY    58  52  80 N18G25    29.77F
HURON          PTCLDY    64  50  60 NE20G29   29.77F
SISSETON         N/A     62  52  69 NE15      29.80S
ABERDEEN       CLOUDY    66  50  56 NE9       29.82F
MITCHELL       PTCLDY    66  56  70 N15       29.77R
PIERRE         CLOUDY    62  51  67 NE10      29.83R
MOBRIDGE       CLOUDY    64  56  75 S6        29.84F
RAPID CITY     CLOUDY    53  53 100 NE13      29.90R
$$

  *****  SOME WEATHER IN NEARBY STATES *****

CITY           SKY/WX    TMP DP  RH WIND       PRES   REMARKS
GLASGOW MT     SUNNY     72  46  39 S17       29.84S
GREAT FALLS MT MOSUNNY   68  42  38 E9        29.82F
CHEYENNE WY    CLOUDY    53  41  63 N7        29.97R
SCOTTSBLUFF NE CLOUDY    56  53  90 W7        29.89S
OMAHA NE       CLOUDY    72  59  63 S23G31    29.76R
DES MOINES IA  CLOUDY    75  64  68 S9        29.80R
DAVENPORT IA   PTCLDY    75  59  57 S13       29.89R
CHICAGO IL     PTCLDY    76  60  57 S10       29.90F
EAU CLAIRE WI  MOCLDY    66  63  90 SW3       29.75S
LA CROSSE WI   CLEAR     73  64  73 CALM      29.76S
$$

  *****  SOME NATIONAL WEATHER *****

CITY           SKY/WX    TMP DP  RH WIND       PRES   REMARKS
LA GUARDIA NY  MOCLDY    74  56  53 S9        30.17R
RALEIGH NC     PTCLDY    75  55  49 S3        30.25S
ATLANTA GA     LGT RAIN  70  66  88 SE8       30.22F
NEW ORLEANS LA LGT RAIN  73  68  84 E9        30.01F
OKLAHOMA CITY  CLOUDY    62  58  86 SE3       29.80R
ALBUQUERQUE NM CLOUDY    59  48  67 E8        30.02R
SALT LAKE CITY PTSUNNY   68  41  37 CALM      29.93S
LOS ANGELES CA MOSUNNY   64  56  75 W12       29.96F
BOISE ID       CLOUDY    69  47  45 SE15G23   29.84F
SEATTLE WA     CLOUDY    58  49  72 S6        30.02S
$$

*** WEATHER ACROSS MANITOBA...SASKATCHEWAN AND ONTARIO ***
                ***ONTARIO***

CITY           SKY/WX    TMP DP  RH WIND       PRES   REMARKS
GERALDTON      LGT RAIN  57  55  94 SW2       29.81R
THUNDER BAY    LGT RAIN  55  54  94 NE8       29.75R
SIOUX LOOKOUT  CLOUDY    68  54  60 S12       29.74R
TORONTO        PTCLDY    77  61  57 SW18G32   29.94R
BIG TROUT LK   CLEAR     63  43  48 N2        29.75F HAZE
PICKLE LAKE    CLOUDY    70  34  26 SE6       29.75S
DRYDEN         MOCLDY    68  52  56 SW9       29.75R
KENORA         CLOUDY    66  52  59 SW7       29.76S
$$
                *** MANITOBA***

CITY           SKY/WX    TMP DP  RH WIND       PRES   REMARKS
BRANDON        CLOUDY    77  41  27 W8        29.76
DAUPHIN        MOSUNNY   77  41  27 E6        29.74R
ISLAND LAKE    MOSUNNY   73  39  29 VRB2      29.70F
PILOT MOUND      N/A     73  39  29 NW6         N/A
THE PAS        NOT AVBL
THOMPSON       PTSUNNY   75  41  29 VRB2      29.60F
WINNIPEG       PTSUNNY   79  46  31 CALM      29.72S
LYNN LAKE      CLOUDY    48  37  66 NE24G35   29.75R
CHURCHILL      CLOUDY    27  21  80 NE17      29.98S WCI  14
GILLAM         MOSUNNY   50  32  50 NE14G29   29.72F
$$
                ***SASKATCHEWAN***

CITY           SKY/WX    TMP DP  RH WIND       PRES   REMARKS
ESTEVAN        PTSUNNY   72  41  33 N8        29.83R
KINDERSLEY     PTSUNNY   77  32  19 VRB2      29.82S
LLOYDMINSTER   PTSUNNY   75  32  20 N6        29.81S
PRINCE ALBERT  CLOUDY    72  45  37 S8        29.76F
REGINA         PTSUNNY   73  41  31 NW8       29.82S
YORKTON        SUNNY     73  45  35 W3        29.77F
N. BATTLEFORD  SUNNY     73  41  31 N8        29.82F
LA RONGE       LGT RAIN  70  46  43 NW18G28   29.72R
SASKATOON      MOSUNNY   77  39  25 N10G17    29.81R
SWIFT CURRENT  PTSUNNY   72  34  25 SE8       29.84S
$$
NOTE: THESE ARE AUTOMATED STATIONS WITH LIMITED QUALITY CONTROL
      "FAIR" INDICATES FEW OR NO CLOUDS BELOW 12,000 FEET WITH NO
      SIGNIFICANT WEATHER AND/OR OBSTRUCTIONS TO VISIBILITY.
      SKY/WX - SKY CONDITION AND SIGNIFICANT WEATHER.
      TMP - AIR TEMPERATURE.    DP   - DEWPOINT TEMPERATURE.
      RH  - RELATIVE HUMIDITY.  PRES - PRESSURE.
      HX  - HEAT INDEX.         WCI  - WIND CHILL INDEX.
$



USA.gov is the U.S. government's official web portal to all federal, state and local government web resources and services.